Location: Geroldsau
(48.7259°N, 8.2466°E)
Time: 15:28:16
(UTC+00:00)

Daily predictions for brighter satellites

Satellite Brightness Start Highest point End
(mag) Time Altitude Azimuth Time Altitude Azimuth Time Altitude Azimuth
USA 308 3.5 16:00:23 10° WNW 16:04:26 41° N 16:08:30 10° ENE
SL-16 R/B 3.2 15:59:55 10° N 16:04:32 25° NE 16:09:06 10° E
Cosmos 2221 3.1 16:00:20 10° SSW 16:04:34 60° WNW 16:08:53 10° N
Okean O Rocket 3.4 16:03:09 10° E 16:05:02 13° NE 16:06:56 10° NNE
MOS 1 Rocket 3.9 16:00:38 10° N 16:05:31 63° WNW 16:10:04 10° SSW
CZ-2C R/B 2.8 16:01:45 10° SSE 16:06:32 66° ENE 16:11:15 10° N
Envisat 4.3 16:02:27 10° S 16:07:18 45° W 16:12:11 10° NNW
Cosmos 2082 Rocket 2.7 16:03:11 10° S 16:08:31 43° ESE 16:13:51 10° NE
Sich 1 3.3 16:04:40 10° N 16:08:50 46° ENE 16:13:00 10° SSE
Cosmos 1500 Rocket 3.7 16:04:28 10° N 16:08:56 84° W 16:13:19 10° S
Cosmos 540 Rocket 3.6 16:04:28 10° S 16:09:29 62° ESE 16:14:33 10° NNE
ARGOS 4.4 16:07:27 10° E 16:11:08 19° ENE 16:14:48 10° NNE
SJ-7 4.5 16:08:39 10° SSE 16:12:52 86° ENE 16:17:08 10° NNW
FengYun 1-2 T 4.3 16:08:52 10° SSE 16:14:20 60° ENE 16:19:46 10° N
COSMOS 2455 3.0 16:09:05 10° SSW 16:14:59 60° ESE 16:20:56 10° NE
SMAP 3.3 16:12:35 10° SE 16:17:02 47° ENE 16:21:31 10° N
NOAA 6 4.2 16:13:36 10° SE 16:18:33 51° ENE 16:23:30 10° N
Cosmos 1805 Rocket 3.5 16:17:03 10° N 16:21:24 79° E 16:25:44 10° SSE
Cosmos 1833 Rocket 2.9 16:16:09 10° SSW 16:21:46 78° WNW 16:27:27 10° NNE
Cosmos 1933 3.3 16:17:48 10° S 16:21:50 75° E 16:25:52 10° NNE
Cosmos 2278 3.7 16:16:13 10° NNW 16:21:55 62° ENE 16:27:33 10° SE
Cosmos 2333 Rocket 4.0 16:20:32 10° N 16:23:23 14° NNE 16:26:02 10° ENE
Cosmos 1602 3.7 16:20:25 10° N 16:24:18 88° E 16:28:11 10° S
CZ-4B DEB 4.4 16:22:27 10° SE 16:27:44 49° ENE 16:33:00 10° N
USA 305 3.3 16:24:50 10° WNW 16:28:58 47° NNE 16:32:51 11° E
CZ-2C R/B 3.8 16:26:14 10° NE 16:30:00 20° E 16:33:46 10° SE
SL-24 R/B - RUBIN 2 4.2 16:26:51 10° NW 16:31:19 60° WSW 16:35:33 10° SSE
Cosmos 2219 Rocket 4.0 16:29:04 10° N 16:31:28 12° NNE 16:33:20 11° NE
CZ-4B R/B 2.9 16:29:09 10° S 16:33:04 76° WSW 16:36:50 10° NNW
Cosmos 1500 3.0 16:30:50 10° N 16:34:35 75° E 16:38:17 10° SSE
Meteor 1-14 Rocket 4.4 16:29:00 10° N 16:34:47 57° ENE 16:40:38 10° SSE
Cosmos 44 Rocket 3.3 16:31:11 10° NNW 16:36:06 61° NE 16:40:50 10° SE
COSMOS 2406 3.5 16:35:41 10° SW 16:41:25 72° WNW 16:47:10 10° NNE
Cosmos 1814 Rocket 4.1 16:37:16 10° S 16:42:21 56° ESE 16:47:25 10° NNE
Cosmos 921 Rocket 4.0 16:40:12 10° SSE 16:43:41 25° E 16:45:57 16° NE
Cosmos 1570 Rocket 4.1 16:44:07 10° S 16:49:13 56° ESE 16:54:14 11° NNE
MOS 1-B Rocket 4.5 16:45:45 10° NNE 16:51:33 45° E 16:58:10 10° S
CZ-4B R/B 3.4 16:48:45 10° SE 16:53:49 44° ENE 16:58:50 10° N
Cosmos 2298 Rocket 4.2 16:49:36 10° NNW 16:54:49 51° ENE 17:00:00 10° SE
USA 267 3.3 16:50:26 16° ENE 16:55:54 68° SE 17:02:24 10° SW
CZ-2D R/B 3.2 16:52:17 10° SSE 16:56:03 58° ENE 16:59:49 10° N
MOS 1-B 4.3 16:52:57 10° SSE 16:58:39 64° ENE 17:04:24 10° N
ATLAS CENTAUR R/B 2.9 16:49:24 10° WSW 16:58:41 70° NW 17:01:31 20° NE
Cosmos 1939 Rocket 3.4 16:54:41 10° S 16:58:45 62° W 17:02:47 10° NNW
USA 306 3.0 16:57:10 10° WNW 17:01:22 59° NNE 17:03:51 23° E
COSMO-SKYMED 1 3.3 16:59:10 19° NE 17:01:27 31° E 17:05:18 10° SSE
Cosmos 1633 Rocket 2.9 16:57:08 10° N 17:01:32 75° E 17:05:56 10° SSE
Cosmos 1151 Rocket 2.9 16:57:23 10° S 17:01:42 71° E 17:06:04 10° NNE
Cosmos 1666 2.5 16:59:34 10° N 17:03:18 89° E 17:07:01 10° S
Cosmos 1782 3.4 16:59:55 10° SSW 17:03:50 57° WNW 17:07:47 10° N
APEX 3.9 17:00:56 10° S 17:04:03 26° ESE 17:04:23 26° ESE
Meteor 2-6 Rocket 4.3 16:59:13 10° S 17:04:45 56° E 17:10:11 10° NNE
Cosmos 2360 Rocket 2.9 17:00:40 10° NNW 17:05:40 31° NE 17:08:17 21° E
ISS -0.9 17:04:07 10° W 17:06:35 19° SW 17:09:01 10° S
SeaSat 1 4.5 17:04:03 10° N 17:07:42 21° NW 17:11:20 10° W
PAYLOAD B 4.2 17:03:06 10° SSE 17:08:42 80° ENE 17:14:19 10° NNW
Cosmos 1900 4.2 17:03:54 10° SSW 17:08:44 71° ESE 17:11:52 22° NE
YAOGAN 1 4.1 17:11:21 18° NNE 17:11:21 18° NNE 17:13:05 10° N
Cosmos 1818 3.7 17:06:07 10° NW 17:11:38 79° SW 17:17:04 10° SSE
CZ-2C R/B 3.8 17:14:58 10° SSW 17:16:38 12° S 17:18:18 10° SSE
Cosmos 2279 Rocket 3.9 17:11:34 10° S 17:17:47 87° E 17:24:01 10° N
ATLAS 5 CENTAUR R/B 2.1 17:11:11 10° NW 17:18:30 59° NNE 17:19:39 36° E
Cosmos 2142 Rocket 4.5 17:12:32 10° S 17:18:43 88° W 17:25:02 10° N
Cosmos 1536 4.5 17:15:06 10° N 17:16:30 19° NNE 17:16:30 19° NNE
Cosmos 841 Rocket 4.3 17:14:14 10° SW 17:19:13 48° WNW 17:24:13 10° NNE
Meteor 2-15 4.4 17:14:10 10° S 17:20:08 60° E 17:26:07 10° NNE
Cosmos 2266 Rocket 4.0 17:14:16 10° N 17:20:37 61° ENE 17:26:57 10° SSE
ERBS 3.9 17:18:30 10° NW 17:20:46 20° N 17:20:46 20° N
USA 307 2.8 17:17:43 10° WNW 17:21:58 68° NNE 17:23:33 36° E
CZ-4C R/B 3.6 17:15:30 10° NW 17:22:37 59° WSW 17:30:51 10° SSE
Lacrosse 5 rocket 2.0 17:21:09 10° WNW 17:24:59 53° SW 17:28:57 10° SE
SL-08 RB Rocket 4.0 17:20:56 10° SE 17:25:18 44° ENE 17:29:40 10° N
NOSS 3-4 (A) 4.4 17:20:23 10° NW 17:26:24 34° NNE 17:28:52 28° ENE
NOSS 3-4 (C) 4.4 17:20:30 10° NW 17:26:30 34° NNE 17:28:56 28° ENE
Cosmos 2208 Rocket 4.1 17:23:06 10° SSW 17:28:31 88° WNW 17:32:52 17° NNE
Cosmos 1933 Rocket 3.6 17:24:23 10° N 17:28:39 53° ENE 17:32:53 10° SSE
Cosmos 2322 Rocket 2.2 17:22:58 10° NNW 17:28:39 62° ENE 17:34:18 10° SE
ATLAS 2AS CENTAUR R/B 3.9 17:22:30 10° NW 17:28:45 27° NNE 17:31:18 22° NE
COSMOS 2428 4.1 17:25:10 10° N 17:28:43 20° NNE 17:28:43 20° NNE
USA 234 3.4 17:23:51 10° SE 17:30:24 77° SW 17:36:58 10° WNW
Cosmos 2150 Rocket 3.9 17:25:13 10° NNW 17:30:26 89° ENE 17:35:42 10° SSE
Cosmos 1980 Rocket 4.1 17:26:34 10° NW 17:31:31 32° WSW 17:36:25 10° SSW
Cosmos 1328 Rocket 3.6 17:27:20 10° SSW 17:31:47 81° W 17:36:01 11° N
Cosmos 1470 Rocket 3.6 17:30:13 10° N 17:34:43 86° W 17:39:12 10° S
Cosmos 1544 2.9 17:31:12 10° N 17:34:50 79° E 17:38:27 10° SSE
Cosmos 1125 Rocket 3.5 17:31:23 10° NNW 17:36:41 88° WSW 17:41:57 10° SSE
Cosmos 1867 4.0 17:32:33 10° S 17:37:37 41° ESE 17:38:28 38° E
Cosmos 1812 4.1 17:34:04 10° SW 17:37:42 39° WNW 17:41:21 10° N
X-37B 2.4 17:36:08 10° SW 17:37:49 20° S 17:37:49 20° S
H-2A R/B 2.4 17:33:52 10° S 17:38:56 63° WSW 17:43:54 10° NNW
DEBRIS 4.4 17:37:03 10° S 17:38:35 21° SSE 17:38:35 21° SSE
Okean O Rocket 1.5 17:36:13 10° SSE 17:40:41 84° ENE 17:45:09 10° NNW
Meteor 2-8 Rocket 4.5 17:35:35 10° SSW 17:41:44 82° W 17:47:57 10° N
Meteor 1-10 Rocket 4.1 17:36:07 10° S 17:41:52 80° E 17:47:11 12° NNE
Meteor 1-11 Rocket 3.6 17:36:12 10° N 17:41:53 79° ENE 17:47:39 10° SSE
GEOS 3 Rocket 4.0 17:41:55 39° NE 17:42:32 40° NE 17:47:22 10° NNW
USA 32 4.0 17:38:47 10° SSE 17:43:52 56° E 17:46:22 29° NNE
ATLAS CENTAUR R/B 4.0 17:42:38 10° NNW 17:44:08 11° N 17:44:14 11° N
USA 308 2.7 17:40:25 10° WNW 17:44:41 85° NNE 17:45:22 62° ESE
SL-16 R/B 2.3 17:43:34 10° NNW 17:49:15 77° WSW 17:54:54 10° SSE
SKYMED 2 3.5 17:47:47 34° NNE 17:49:42 89° WNW 17:54:02 10° SSW
Cosmos 2237 Rocket 4.2 17:47:51 10° N 17:49:04 12° NNE 17:49:04 12° NNE
ARGOS 3.2 17:45:21 10° SSE 17:50:46 81° WSW 17:56:13 10° NNW
Cosmos 2082 Rocket 3.4 17:47:26 10° WSW 17:52:41 38° NW 17:56:57 15° NNE
deb Chang Zheng 4 4.1 17:52:02 10° S 17:56:17 59° WSW 18:00:34 10° NNW
COSMOS 2455 4.1 17:55:49 10° WSW 18:01:17 35° NW 18:04:54 19° NNE
Feng Yun 1-1 Rocket 4.3 17:59:43 10° SSE 18:05:38 88° ENE 18:11:30 10° NNW
USA 305 3.1 18:04:45 10° WNW 18:08:52 64° SW 18:08:52 64° SW
Cosmos 2333 Rocket 2.8 18:03:41 10° NNW 18:08:04 40° NNE 18:08:04 40° NNE
Cosmos 1356 Rocket 4.1 18:05:16 10° NNW 18:09:23 53° W 18:13:32 10° S
CZ-2C R/B 2.9 18:06:50 17° N 18:10:46 63° WNW 18:15:52 10° SSW
Cosmos 2219 Rocket 3.2 18:11:39 10° NNW 18:15:05 31° N 18:15:05 31° N
Aureole 3 Rocket 3.6 18:13:27 10° S 18:18:07 84° W 18:24:51 10° N
Cosmos 1515 Rocket 4.4 18:14:41 10° SSW 18:19:00 48° WNW 18:20:26 35° NNW
Cosmos 921 Rocket 4.4 18:17:54 10° SW 18:21:48 35° WNW 18:22:47 31° NNW
Nadezhda 2 Rocket 4.4 18:17:42 10° N 18:24:10 72° E 18:24:23 71° E
COSMO-SKYMED 1 4.2 18:36:23 27° NW 18:37:35 31° WNW 18:41:25 10° SW
USA 267 3.5 18:37:47 51° NNE 18:38:52 57° NNW 18:45:14 10° W
Meteor 1-27 Rocket 4.3 18:39:39 10° SSW 18:45:01 52° WNW 18:46:30 41° NNW
Cosmos 2360 Rocket 2.7 18:44:27 10° NW 18:50:00 57° WSW 18:50:08 56° WSW
Cosmos 2322 Rocket 4.2 19:07:44 10° NW 19:12:16 25° WSW 19:16:48 10° SSW
NOSS 3-4 (A) 4.2 19:11:10 10° NW 19:16:19 56° NW 19:16:19 56° NW
NOSS 3-4 (C) 4.2 19:11:17 10° NW 19:16:24 55° NW 19:16:24 55° NW
ATLAS 2AS CENTAUR R/B 3.8 19:14:12 10° NW 19:18:44 36° NNW 19:18:44 36° NNW
Cosmos 2333 Rocket 4.5 19:48:13 10° NW 19:50:08 20° NW 19:50:08 20° NW
